STARLINK-34375, 64477

Orbit data source: Space-Track

STARLINK-34375, 64477 is a payload satellite owned by SpaceX/Seattle (US) in LEO that was launched on Mon, 23 Jun 2025 UTC via an FALCON 9 launch vehicle from the Air Force Eastern Test Range (AFETR). Payload-class satellites include a variety of spacecraft equipped with specific instruments for various scientific and technological missions. These include communications satellites like Starlink; space stations such as the ISS; scientific satellites like the Hubble; Earth observation satellites from companies like Planet Labs, Umbra, and HawkEye 360; GPS; miniature CubeSats for education and research; and military/defense satellites.

Loading next visibility...
Identifier
64477, 2025-133F
Orbit
LEO
Country
Flag of USUS
Related business
Manufacturer
SpaceX/Seattle
Mission
Operational Commercial Communications
Bus & Motor
STARLINK V2MO, Unknown motor
Mass
575 kg wet, ~530 kg dry
Launch date (UTC)
2025-06-23 (1 year ago)
Launch vehicle
FALCON 9
Launch site
Air Force Eastern Test Range (AFETR)
Object type
Payload
Rocket body
Debris
Shape & HBR
Box + 2 Pan, 17.7 m
Radar Cross Section
36.964 m², Large (>1 m²)

Expand to show TLE details & history
Last TLE update: 1 day ago

TLE from 1 day ago
0 STARLINK-34375
1 64477U 25133F   26170.90743758  .00025777  00000-0  77102-3 0  9999
2 64477  53.1611 358.7975 0001106  92.6361 267.4768 15.34416464 56881
Epoch: 2026-06-19T21:46Z
TLE epoch observation values (Epoch: 2026-06-19T21:46:42.606Z)
Latitude
-0.00006°
Longitude
123.99025°
Altitude
463.589 km
Speed
7.636 km/s
True Right ascension
23h 55m 11s
True Declination
0° 00' 00"
Sunlit
Object was in daylight at epoch
Visualization orbit readout
Latitude
Unknown
Longitude
Unknown
Altitude
Unknown
Speed
Unknown
Apparent Right ascension
Unknown
Apparent Declination
Unknown
Sunlit
N/A
Visualization observer readout
Local Sidereal Time
10:17:52
Azimuth
Unknown
Elevation
Unknown
Doppler factor
Unknown
Orbital elements
Apogee altitude
463.668 km
Perigee altitude
462.154 km
Semi-major axis
6,841.048 km
Eccentricity
0.00011
Inclination
53.1611°
RAAN
358.7975°
Arg. of periapsis
92.6361°
True anomaly
267.46414°
Mean anomaly
267.4768°
Eccentric anomaly
267.47047°
Mean motion
3.83583 °/min
Orbital period
93.85 mins
BSTAR
0.00077102
Loading maneuver chart data...
Computing Atmospheric mass density...
Loading historical data...
Loading historical data...
Loading historical data...
Loading historical data...
Loading historical data...
Loading historical data...
Loading historical data...

Documentation

Showing up to 5 results
|